Fort Atkinson, Wisconsin, United States (53538)
Lat: 42.93N, Lon: 88.84W
Wx Zone: WIZ064
Local Info
Past Weather Observations for Sunday, April 24, 2016

NOTE: This archive is for the closest National Weather Service station to Fort Atkinson. Information may differ from the station used for current weather conditions.

Click here for Long-term Archive

Time Weather Temperature Dewpoint Humidity Pressure Winds Precip Visibility
23:55
Clear
54°F / 12°C 45°F / 7°C 72% 29.77 in
(1008 mb)
ESE 5.8 mph
(ESE 9 kph)
- 10SM
23:35
Clear
52°F / 11°C 45°F / 7°C 77% 29.77 in
(1008 mb)
ESE 6.9 mph
(ESE 11 kph)
- 10SM
23:15
Clear
52°F / 11°C 45°F / 7°C 77% 29.77 in
(1008 mb)
E 9.2 mph
(E 15 kph)
- 10SM
22:55
Partly Cloudy
54°F / 12°C 45°F / 7°C 72% 29.8 in
(1009 mb)
ESE 8.1 mph
(ESE 13 kph)
- 10SM
22:35
Partly Cloudy
54°F / 12°C 45°F / 7°C 72% 29.8 in
(1009 mb)
ESE 6.9 mph
(ESE 11 kph)
- 10SM
22:15
Partly Cloudy
54°F / 12°C 45°F / 7°C 72% 29.8 in
(1009 mb)
E 8.1 mph
(E 13 kph)
- 10SM
21:55
Partly Cloudy
54°F / 12°C 45°F / 7°C 72% 29.8 in
(1009 mb)
ESE 5.8 mph
(ESE 9 kph)
- 10SM
21:35
Partly Cloudy
54°F / 12°C 45°F / 7°C 72% 29.8 in
(1009 mb)
ESE 6.9 mph
(ESE 11 kph)
- 10SM
21:15
Partly Cloudy
54°F / 12°C 45°F / 7°C 72% 29.8 in
(1009 mb)
E 9.2 mph
(E 15 kph)
- 10SM
20:55
Clear
54°F / 12°C 45°F / 7°C 72% 29.8 in
(1009 mb)
E 9.2 mph
(E 15 kph)
- 10SM
20:35
Clear
54°F / 12°C 45°F / 7°C 72% 29.8 in
(1009 mb)
E 10.4 mph
(E 17 kph)
- 10SM
20:15
Clear
54°F / 12°C 45°F / 7°C 72% 29.8 in
(1009 mb)
E 11.5 mph
(E 19 kph)
- 10SM
19:55
Partly Cloudy
54°F / 12°C 45°F / 7°C 72% 29.8 in
(1009 mb)
E 10.4 mph
(E 17 kph)
- 10SM
19:35
Partly Cloudy
54°F / 12°C 45°F / 7°C 72% 29.8 in
(1009 mb)
E 10.4 mph
(E 17 kph)
- 10SM
19:15
Clear
54°F / 12°C 45°F / 7°C 72% 29.8 in
(1009 mb)
E 11.5 mph
(E 19 kph)
- 10SM
18:55
Clear
55°F / 13°C 45°F / 7°C 67% 29.8 in
(1009 mb)
E 10.4 mph
(E 17 kph)
- 10SM
18:35
Clear
55°F / 13°C 46°F / 8°C 72% 29.8 in
(1009 mb)
E 16.1 mph
(E 26 kph)
- 10SM
18:15
Clear
57°F / 14°C 46°F / 8°C 67% 29.8 in
(1009 mb)
E 13.8 mph
(E 22 kph)
- 10SM
17:55
Clear
57°F / 14°C 48°F / 9°C 72% 29.8 in
(1009 mb)
E 13.8 mph
(E 22 kph)
- 10SM
17:35
Clear
59°F / 15°C 48°F / 9°C 68% 29.8 in
(1009 mb)
E 15 mph
(E 24 kph)
- 10SM
17:15
Clear
61°F / 16°C 48°F / 9°C 63% 29.83 in
(1010 mb)
E 15 mph
(E 24 kph)
- 10SM
16:55
Clear
61°F / 16°C 48°F / 9°C 63% 29.83 in
(1010 mb)
E 10.4 mph
(E 17 kph)
- 10SM
16:35
Clear
63°F / 17°C 50°F / 10°C 64% 29.83 in
(1010 mb)
E 13.8 mph
(E 22 kph)
- 10SM
16:15
Clear
63°F / 17°C 50°F / 10°C 64% 29.83 in
(1010 mb)
E 16.1 mph
(E 26 kph)
- 10SM
15:55
Clear
63°F / 17°C 50°F / 10°C 64% 29.83 in
(1010 mb)
E 15 mph
(E 24 kph)
- 10SM
15:35
Clear
64°F / 18°C 50°F / 10°C 60% 29.83 in
(1010 mb)
E 18.4 mph
(E 30 kph)
- 10SM
15:15
Partly Cloudy
66°F / 19°C 52°F / 11°C 60% 29.83 in
(1010 mb)
E 19.6 mph
(E 32 kph)
- 10SM
14:55
Partly Cloudy
66°F / 19°C 54°F / 12°C 64% 29.86 in
(1011 mb)
ENE 16.1 mph
(ENE 26 kph)
- 10SM
14:35
Partly Cloudy
66°F / 19°C 55°F / 13°C 68% 29.86 in
(1011 mb)
ENE 11.5 mph
(ENE 19 kph)
- 10SM
14:15
Partly Cloudy
66°F / 19°C 54°F / 12°C 64% 29.86 in
(1011 mb)
ENE 11.5 mph
(ENE 19 kph)
- 10SM
13:55
Partly Cloudy
68°F / 20°C 55°F / 13°C 64% 29.89 in
(1012 mb)
ENE 12.7 mph
(ENE 20 kph)
- 10SM
13:35
Mostly Cloudy
66°F / 19°C 55°F / 13°C 68% 29.89 in
(1012 mb)
NE 9.2 mph
(NE 15 kph)
- 10SM
13:15
Mostly Cloudy
66°F / 19°C 55°F / 13°C 68% 29.89 in
(1012 mb)
NE 6.9 mph
(NE 11 kph)
- 10SM
12:55
Partly Cloudy
66°F / 19°C 55°F / 13°C 68% 29.89 in
(1012 mb)
NE 10.4 mph
(NE 17 kph)
- 10SM
12:35
Partly Cloudy
66°F / 19°C 55°F / 13°C 68% 29.89 in
(1012 mb)
NE 8.1 mph
(NE 13 kph)
- 10SM
12:15
Mostly Cloudy
64°F / 18°C 54°F / 12°C 68% 29.89 in
(1012 mb)
E 6.9 mph
(E 11 kph)
- 10SM
11:55
Overcast
63°F / 17°C 54°F / 12°C 73% 29.92 in
(1013 mb)
E 8.1 mph
(E 13 kph)
- 10SM
11:35
Overcast
59°F / 15°C 54°F / 12°C 82% 29.92 in
(1013 mb)
E 8.1 mph
(E 13 kph)
- 10SM
11:15
Overcast
59°F / 15°C 54°F / 12°C 82% 29.92 in
(1013 mb)
E 8.1 mph
(E 13 kph)
- 10SM
10:55
Mostly Cloudy
57°F / 14°C 54°F / 12°C 88% 29.92 in
(1013 mb)
E 6.9 mph
(E 11 kph)
- 10SM
10:35
Mostly Cloudy
57°F / 14°C 54°F / 12°C 88% 29.95 in
(1014 mb)
E 6.9 mph
(E 11 kph)
- 10SM
10:15
Overcast
55°F / 13°C 55°F / 13°C 100% 29.95 in
(1014 mb)
E 6.9 mph
(E 11 kph)
- 10SM
09:55
Overcast
Light Rain
54°F / 12°C 54°F / 12°C 100% 29.95 in
(1014 mb)
ESE 5.8 mph
(ESE 9 kph)
- 10SM
09:35
Mostly Cloudy
54°F / 12°C 54°F / 12°C 100% 29.95 in
(1014 mb)
SE 4.6 mph
(SE 7 kph)
- 10SM
09:15
Mostly Cloudy
54°F / 12°C 54°F / 12°C 100% 29.95 in
(1014 mb)
E 4.6 mph
(E 7 kph)
- 10SM
08:55
Overcast
52°F / 11°C 52°F / 11°C 100% 29.95 in
(1014 mb)
Calm 0.02 in
(0.51 mm)
10SM
08:35
Overcast
Light Rain
50°F / 10°C 50°F / 10°C 100% 29.95 in
(1014 mb)
SE 5.8 mph
(SE 9 kph)
0.02 in
(0.51 mm)
7SM
08:15
Overcast
Fog And Mist
50°F / 10°C 50°F / 10°C 100% 29.95 in
(1014 mb)
SE 4.6 mph
(SE 7 kph)
- 5SM
07:55
Overcast
50°F / 10°C 50°F / 10°C 100% 29.98 in
(1015 mb)
SE 3.5 mph
(SE 6 kph)
- 7SM
07:35
Overcast
Light Rain
48°F / 9°C 48°F / 9°C 100% 29.98 in
(1015 mb)
SE 4.6 mph
(SE 7 kph)
- 7SM
07:15
Partly Cloudy
Fog And Mist
48°F / 9°C 48°F / 9°C 100% 29.98 in
(1015 mb)
SE 5.8 mph
(SE 9 kph)
- 5SM
06:55
Partly Cloudy
48°F / 9°C 46°F / 8°C 94% 29.98 in
(1015 mb)
SE 6.9 mph
(SE 11 kph)
- 7SM
06:35
Partly Cloudy
46°F / 8°C 46°F / 8°C 100% 30.01 in
(1016 mb)
SE 4.6 mph
(SE 7 kph)
- 7SM
06:15
Partly Cloudy
45°F / 7°C 45°F / 7°C 100% 30.01 in
(1016 mb)
SSE 3.5 mph
(SSE 6 kph)
- 10SM
05:55
Partly Cloudy
43°F / 6°C 43°F / 6°C 100% 30.01 in
(1016 mb)
SSE 4.6 mph
(SSE 7 kph)
- 10SM
05:35
Clear
41°F / 5°C 41°F / 5°C 100% 30.01 in
(1016 mb)
Calm - 10SM
05:15
Clear
41°F / 5°C 41°F / 5°C 100% 30.01 in
(1016 mb)
Calm - 10SM
04:55
Partly Cloudy
39°F / 4°C 39°F / 4°C 100% 30.01 in
(1016 mb)
Calm - 10SM
04:35
Mostly Cloudy
39°F / 4°C 39°F / 4°C 100% 30.01 in
(1016 mb)
Calm - 10SM
04:15
Partly Cloudy
39°F / 4°C 39°F / 4°C 100% 30.01 in
(1016 mb)
Calm - 10SM
03:55
Partly Cloudy
39°F / 4°C 39°F / 4°C 100% 30.04 in
(1017 mb)
E 3.5 mph
(E 6 kph)
- 10SM
03:35
Partly Cloudy
39°F / 4°C 39°F / 4°C 100% 30.04 in
(1017 mb)
E 4.6 mph
(E 7 kph)
- 10SM
03:15
Overcast
39°F / 4°C 37°F / 3°C 93% 30.04 in
(1017 mb)
Calm - 10SM
02:55
Mostly Cloudy
39°F / 4°C 39°F / 4°C 100% 30.04 in
(1017 mb)
Calm - 10SM
02:35
Clear
39°F / 4°C 39°F / 4°C 100% 30.04 in
(1017 mb)
E 3.5 mph
(E 6 kph)
- 10SM
02:15
Clear
39°F / 4°C 39°F / 4°C 100% 30.04 in
(1017 mb)
E 4.6 mph
(E 7 kph)
- 10SM
01:55
Clear
39°F / 4°C 37°F / 3°C 93% 30.04 in
(1017 mb)
E 4.6 mph
(E 7 kph)
- 10SM
01:35
Clear
39°F / 4°C 37°F / 3°C 93% 30.04 in
(1017 mb)
ENE 3.5 mph
(ENE 6 kph)
- 10SM
01:15
Clear
41°F / 5°C 37°F / 3°C 87% 30.04 in
(1017 mb)
E 4.6 mph
(E 7 kph)
- 10SM
00:55
Clear
41°F / 5°C 37°F / 3°C 87% 30.04 in
(1017 mb)
E 4.6 mph
(E 7 kph)
- 10SM
00:35
Clear
43°F / 6°C 36°F / 2°C 76% 30.04 in
(1017 mb)
E 5.8 mph
(E 9 kph)
- 10SM
00:15
Clear
43°F / 6°C 37°F / 3°C 81% 30.04 in
(1017 mb)
E 5.8 mph
(E 9 kph)
- 10SM
Time Weather Temperature Dewpoint Humidity Pressure Winds Precip Visibility


Weather for websites

WeatherForYou.com, LLC is not responsible for any damages or problems caused by this service. Current weather conditions are obtained from the closest station including government and personal stations which may have varying degrees of accuracy. Weather forecasts are derived from the NOAA NDFD. Like all things, this site belongs to Jesus Christ... He just trusts us to maintain it. If you have any questions or comments email webmaster@weatherforyou.com

Copyright © 2016, WeatherForYou.com LLC. All rights reserved.